Location: Cahas Mountain Overlook
(37.0833°N, 80.1000°W)
Time: 19:09:23
(UTC-05:00)

BlueWalker 3 - Visible Passes

Search period start: 30 November 2022 00:00
Search period end: 10 December 2022 00:00
Orbit: 500 x 519 km, 53.2° (Epoch: 30 November)

Date Brightness Start Highest point End Pass type
(mag) Time Alt. Az. Time Alt. Az. Time Alt. Az.
07 Dec 4.2 19:07:24 10° NNW 19:08:28 16° NNW 19:08:28 16° NNW visible
08 Dec 3.3 18:48:58 10° NNW 18:51:15 27° N 18:51:15 27° N visible
09 Dec 2.5 18:30:31 10° NNW 18:34:08 36° NE 18:34:12 36° NE visible
